Terminal Aerodrome Forecast
Issued by NWS

Home | Current Version | Previous Version | Text Only | Print | Product List | Glossary On
Versions: 1 2 3 4 5 6 7 8 9 10 11 12 13 14 15 16
000
FTUS43 KLSX 010500
TAFUIN
TAF
KUIN 010520Z 0106/0206 12007KT P6SM FEW250
     FM011500 16009KT P6SM FEW050 SCT120 BKN250
     FM020000 16006KT P6SM VCTS SCT040CB BKN120=

USA.gov is the U.S. government's official web portal to all federal, state and local government web resources and services.